Starlink 6047

operational
NORAD ID: 56460 Int'l Des: 2023-064 Owner: SPXS Country: US Constellation: starlink
LEOCIRCULAR

Starlink 6047について

説明を読み込み中...

リアルタイム位置

3D地球を読み込み中...

次回通過

高度履歴

Altitude vs Time

uPlot chart will show altitude changes over time

軌道要素

1 56460U 23064N 25304.21664933 -.00002844 00000-0 -23068-3 0 9996
2 56460 69.9933 110.8503 0003347 270.0426 90.0350 14.98325781135855
Epoch: Oct 31, 2025 • Age: 9 hours

現在のステータス

高度 579.8 km
速度 7.57 km/s
衛星直下点 44.24°N, 22.2°E
打ち上げ日 May 10, 2023
運用期間 2.4 years
タイプ internet

技術仕様

分類 Payload
質量 305.00 kg
乾燥質量 290.00 kg
総質量 305.00 kg
長さ 0.20 m
直径 2.80 m
スパン 9.00 m
形状 Box + pan
製造者 SPXS
バスタイプ Starlink
フェーズステータス In Orbit
所有者/国 SPXS/US

大規模コンステレーション

Loading constellations...